Location: Saint Louis
(38.6270°N, 90.1980°W)
Time: 22:38:35
(UTC-05:00)

ISS - Pass Details

Date: 12 October 2013
Orbit: 401 x 404 km, 51.6° (Epoch: 30 July)

Event Time Altitude Azimuth Distance (km) Brightness Sun altitude
Rises 19:15:55 0° 244° (WSW) 2,350 1.9 -10.4°
Reaches altitude 10° 19:18:03 10° 250° (WSW) 1,492 0.8 -10.9°
Maximum altitude 19:21:17 46° 326° (NW) 573 -2.3 -11.5°
Enters shadow 19:24:32 10° 41° (NE) 1,492 -0.8 -12.1°
